Regional Weather Roundup
Issued by NWS Wilmington, NC

Home | Current Version | Previous Version | Text Only | Print | Product List | Glossary On
Versions: 1 2 3 4 5 6 7 8 9 10 11 12 13 14 15 16 17 18 19 20 21 22 23 24 25 26 27 28 29 30 31 32 33 34 35 36 37 38 39 40 41 42 43 44 45 46 47 48 49 50
000
ASUS42 KILM 231610
RWRILM
RWRILM
REGIONAL HOURLY WEATHER ROUNDUP
NATIONAL WEATHER SERVICE WILMINGTON NC
1200 PM EDT TUE SEP 23 2014

NOTE: "FAIR" INDICATES FEW OR NO CLOUDS BELOW 12,000 FEET WITH NO
SIGNIFICANT WEATHER AND/OR OBSTRUCTIONS TO VISIBILITY.

...............WFO WILMINGTON COUNTY WARNING AREA...............

......COASTAL NC AND SC COUNTIES......

CITY           SKY/WX    TMP DP  RH WIND       PRES   REMARKS
WILMINGTON     LGT RAIN  63  60  90 N13       30.22S
SOUTHPORT      LGT RAIN  63  60  91 N13G21    30.20S
N MYRTLE BEACH LGT RAIN  66  62  87 N13G25    30.19S
MYRTLE BEACH   LGT RAIN  66  63  88 NE17      30.18F

......INLAND NC AND SC COUNTIES.......

CITY           SKY/WX    TMP DP  RH WIND       PRES   REMARKS
LUMBERTON      LGT RAIN  61  54  77 NE9G20    30.26R
ELIZABETHTOWN  CLOUDY    63  54  72 NE3       30.27R
WHITEVILLE     LGT RAIN  62  58  86 NE7       30.23F
FLORENCE       CLOUDY    63  58  83 NE13      30.25S
DARLINGTON     CLOUDY    64  54  68 NE13G21   30.27S

....................REST OF NORTH CAROLINA......................

.........EASTERN NC.........

CITY           SKY/WX    TMP DP  RH WIND       PRES   REMARKS
CAPE HATTERAS  CLOUDY    69  62  78 NE13G23   30.22S
JACKSONVILLE   CLOUDY    63  54  72 N8        30.25S
MOREHEAD CITY  CLOUDY    70  62  76 NE15G25   30.21S
KENANSVILLE    CLOUDY    62  52  68 N12       30.29R
NEW BERN       CLOUDY    65  56  72 N13       30.26S
ELIZABETH CITY CLOUDY    66  58  75 N14       30.29S

.........CENTRAL NC.........

CITY           SKY/WX    TMP DP  RH WIND       PRES   REMARKS
RALEIGH DURHAM CLOUDY    60  48  64 NE8       30.33S
ROCKY MOUNT    CLOUDY    62  51  67 N8        30.31S
ROANOKE RAPIDS NOT AVBL
FAYETTEVILLE   CLOUDY    62  51  67 NE10      30.26F
HOFFMAN        CLOUDY    61  50  67 NE9       30.31S

.........WESTERN NC.........

CITY           SKY/WX    TMP DP  RH WIND       PRES   REMARKS
CHARLOTTE      CLOUDY    61  48  62 NE13      30.31S
GREENSBORO     CLOUDY    58  46  64 NE10G18   30.34F
HICKORY        NOT AVBL
BOONE          NOT AVBL
ASHEVILLE      NOT AVBL

.....................REST OF SOUTH CAROLINA.....................

.........EASTERN SC.........

CITY           SKY/WX    TMP DP  RH WIND       PRES   REMARKS
CHARLESTON     LGT RAIN  69  66  90 NE9       30.16R
BEAUFORT MCAS  LGT RAIN  70  66  87 NE12      30.14F
HILTON HEAD    NOT AVBL

.........CENTRAL SC.........

CITY           SKY/WX    TMP DP  RH WIND       PRES   REMARKS
COLUMBIA       CLOUDY    70  58  65 NE13G22   30.23S
ORANGEBURG     CLOUDY    64  61  90 NE13G20   30.21R
SUMTER SHAW    CLOUDY    67  60  78 NE21      30.21R

.........WESTERN SC.........

CITY           SKY/WX    TMP DP  RH WIND       PRES   REMARKS
GREENVILLE     NOT AVBL
ROCK HILL      LGT RAIN  60  53  77 NE7       30.31R
ANDERSON       PTSUNNY   64  52  64 NE14G21   30.27R
CLEMSON        NOT AVBL
GREENWOOD      PTSUNNY   68  55  63 NE12      30.26S


...................COASTAL AND OFFSHORE REPORTS..................

................LOCAL PIERS AND NC RESERVE................


STATION/POSITION TIME  SKY/WX   TEMP    WIND        PRES    VSBY
                                AIR SEA DIR/SP/G
                 (UTC)          (F)     (DEG/KT/KT) (MB)    (MI)
JOHNY MRCER PIER 1600            63 79   10/ 17/ 21 1022.4R
NC RESRV MASNBRO 1500            65      10/  6     1022.0S
OCEAN CREST PIER 1600            65 78  350/ 14/ 21 1021.3F
SPRINGMAID  PIER 1600            66 77   20/ 14/ 18 1022.1F


................COASTAL AND OFFSHORE BUOYS................


STATION/POSITION TIME  SKY/WX   TEMP    WIND        PRES    VSBY
                                AIR SEA DIR/SP/G
                 (UTC)          (F)     (DEG/KT/KT) (MB)    (MI)
DIMNDSHOAL 41025 1600            74      30/ 21/ 25 1022.1R
WVE H/P(F/S)=  6/ 6 WND WVE H/P(F/S)=  5/ 6

CAPE LOOKOUT     1500            72      30/ 20/ 24 1022.3R
ONSLOW BAY 41036 1600            73 82   30/ 25/ 31 1020.8F
WVE H/P(F/S)=  6/ 6 WND WVE H/P(F/S)=  7/ 6

5 WRITEBCH 41038 1500            66 79   30/ 19/ 23   N/A
MASONBORO  41110 1600               79                N/A
WVE H/P(F/S)=  5/ 7 WND WVE H/P(F/S)=  5/ 7

WILM HARBR 41108 1600               78                N/A
WVE H/P(F/S)=  5/ 6 WND WVE H/P(F/S)=  5/ 6

27WRITEBCH 41037 1500            71 80   40/ 23/ 25 1021.6R
FRYING PAN 41013 NOT AVBL
SUNST NRSH 41024 1500            68      20/ 16/ 19 1021.5R
CAPRS NRSH 41029 1500            76      90/ 17/ 21   N/A
EDISTO     41004 1600            76 81   60/ 21/ 23 1018.9F
WVE H/P(F/S)=  5/ 6 WND WVE H/P(F/S)=  5/ 6 SWL H/P/D(F/S/D)=  2/10



..........OFFSHORE BUOYS BEYOND 100 NM OFFSHORE...........
.....IN A TRIANGLE---HAT TO BERMUDA TO BAHAMAS TO HAT.....


STATION/POSITION TIME  SKY/WX   TEMP    WIND        PRES    VSBY
                                AIR SEA DIR/SP/G
                 (UTC)          (F)     (DEG/KT/KT) (MB)    (MI)
150E HAT   41001 NOT AVBL
W BERMUDA  41048 1532            81 81  140/  6/  8 1020.5R
WVE H/P(F/S)=  4/ 8 WND WVE H/P(F/S)=  2/ 3 SWL H/P/D(F/S/D)=  3/ 90/ 8

ATLANTIC S 41049 1549            84 85   90/ 14/ 16 1019.4S
WVE H/P(F/S)=  5/ 8 WND WVE H/P(F/S)=  3/ 6 SWL H/P/D(F/S/D)=  5/120/ 8

E BAHAMAS  41046 1457            82 84  110/ 10/ 14 1016.4S
WVE H/P(F/S)=  6/ 8 WND WVE H/P(F/S)=  3/ 5 SWL H/P/D(F/S/D)=  5/110/ 8

NE BAHAMAS 41047 1520            83 83  120/ 10/ 12 1018.8R
WVE H/P(F/S)=  4/ 7 WND WVE H/P(F/S)=  2/ 5 SWL H/P/D(F/S/D)=  3/ 90/ 7

120E CANVRL41010 1600            81 85  140/ 12/ 14 1017.6S
WVE H/P(F/S)=  2/ 8 WND WVE H/P(F/S)=  2/ 3 SWL H/P/D(F/S/D)=  2/ 90/ 8


END


USA.gov is the U.S. government's official web portal to all federal, state and local government web resources and services.